SL-16 DEB, 39304

Orbit data source: Space-Track

SL-16 DEB, 39304 is space debris in LEO originally from a launch on Fri, 25 Dec 1992 UTC launched from the Tyuratam Missile And Space Complex (TTMTR). Debris objects in space refer to the collection of defunct objects orbiting the Earth. Examples of debris include non-operational satellites, rocket bodies, and fragments generated from explosions, collisions, or faulty payload assembly.

Loading next visibility...
Identifier
39304, 1992-093JV
Orbit
LEO
Country
Flag of CISCIS
Related business
Manufacturer
Unknown
Mission
Spacecraft
Bus & Motor
Unknown
Mass
Unknown
Launch date (UTC)
1992-12-25 (33 years ago)
Launch vehicle
Unknown
Launch site
Tyuratam Missile And Space Complex (TTMTR)
Object type
Payload
Rocket body
Debris
Shape & HBR
Unknown shape, 0.1 m
Radar Cross Section
Small (<0.1 m²)

Expand to show TLE details & history
Last TLE update: 2 days ago

TLE from 2 days ago
0 SL-16 DEB
1 39304U 92093JV  25303.78910884  .00000555  00000-0  37235-3 0  9998
2 39304  71.2028  99.8077 0089855 339.6748  20.0801 14.03044168628835
Epoch: 2025-10-30T18:56Z
TLE epoch observation values (Epoch: 2025-10-30T18:56:19.003Z)
Latitude
0.00002°
Longitude
136.38567°
Altitude
824.453 km
Speed
7.472 km/s
True Right ascension
06h 39m 13s
True Declination
0° 00' 00"
Sunlit
Object was in daylight at epoch
Visualization orbit readout
Latitude
Unknown
Longitude
Unknown
Altitude
Unknown
Speed
Unknown
Apparent Right ascension
Unknown
Apparent Declination
Unknown
Sunlit
N/A
Visualization observer readout
Local Sidereal Time
13:58:16
Azimuth
Unknown
Elevation
Unknown
Doppler factor
Unknown
Orbital elements
Apogee altitude
946.418 km
Perigee altitude
815.961 km
Semi-major axis
7,259.326 km
Eccentricity
0.00899
Inclination
71.2028°
RAAN
99.8077°
Arg. of periapsis
339.6748°
True anomaly
20.43738°
Mean anomaly
20.0801°
Eccentric anomaly
20.25836°
Mean motion
3.50912 °/min
Orbital period
102.59 mins
BSTAR
0.00037235
Loading maneuver chart data...
Computing Atmospheric mass density...
Loading historical data...
Loading historical data...
Loading historical data...
Loading historical data...
Loading historical data...
Loading historical data...
Loading historical data...

Documentation

Showing up to 5 results
|